EN

Hourly Weather Paro

Today, 14 April, Wednesday

Time Temperature Precipitation Wind Pressure Humidity
00:00 +6°C° 0 mm 2 mps 562 mmHg 58%
01:00 +6°C° 0 mm 2 mps 562 mmHg 58%
02:00 +6°C° 0 mm 2 mps 562 mmHg 58%
03:00 +6°C° 0 mm 2 mps 561 mmHg 59%
04:00 +6°C° 0 mm 2 mps 561 mmHg 58%
05:00 +5°C° 0 mm 2 mps 562 mmHg 57%
06:00 +5°C° 0 mm 2 mps 562 mmHg 56%
07:00 +8°C° 0 mm 2 mps 563 mmHg 46%
08:00 +13°C° 0 mm 2 mps 565 mmHg 36%
09:00 +16°C° 0 mm 1 mps 566 mmHg 27%
10:00 +17°C° 0 mm 2 mps 566 mmHg 26%
11:00 +19°C° 0 mm 3 mps 566 mmHg 25%
12:00 +20°C° 0 mm 3 mps 566 mmHg 25%
13:00 +20°C° 0 mm 3 mps 565 mmHg 28%
14:00 +19°C° 0 mm 3 mps 564 mmHg 30%
15:00 +19°C° 0 mm 3 mps 564 mmHg 33%
16:00 +17°C° 0.1 mm 3 mps 563 mmHg 41%
17:00 +16°C° 0.1 mm 2 mps 563 mmHg 49%
18:00 +14°C° 0.1 mm 2 mps 562 mmHg 56%
19:00 +13°C° 0.1 mm 1 mps 563 mmHg 62%
20:00 +12°C° 0.1 mm 1 mps 563 mmHg 68%
21:00 +10°C° 0.1 mm 1 mps 563 mmHg 73%
22:00 +10°C° 0 mm 1 mps 563 mmHg 73%
23:00 +10°C° 0 mm 1 mps 563 mmHg 73%

Tomorrow, 15 April, Thursday

Time Temperature Precipitation Wind Pressure Humidity
00:00 +10°C° 0 mm 1 mps 562 mmHg 73%
01:00 +9°C° 0 mm 1 mps 562 mmHg 73%
02:00 +9°C° 0 mm 1 mps 562 mmHg 72%
03:00 +8°C° 0 mm 2 mps 561 mmHg 72%
04:00 +8°C° 0 mm 2 mps 562 mmHg 71%
05:00 +8°C° 0 mm 2 mps 562 mmHg 70%
06:00 +7°C° 0 mm 2 mps 562 mmHg 69%
07:00 +10°C° 0 mm 2 mps 563 mmHg 58%
08:00 +14°C° 0 mm 1 mps 564 mmHg 46%
09:00 +16°C° 0 mm 1 mps 565 mmHg 35%
10:00 +17°C° 0 mm 2 mps 565 mmHg 33%
11:00 +19°C° 0 mm 3 mps 565 mmHg 30%
12:00 +20°C° 0 mm 4 mps 565 mmHg 28%
13:00 +19°C° 0.1 mm 3 mps 564 mmHg 30%
14:00 +19°C° 0.1 mm 3 mps 563 mmHg 33%
15:00 +18°C° 0.1 mm 3 mps 563 mmHg 36%
16:00 +17°C° 0.2 mm 3 mps 562 mmHg 47%
17:00 +15°C° 0.2 mm 2 mps 562 mmHg 57%
18:00 +13°C° 0.2 mm 1 mps 562 mmHg 67%
19:00 +13°C° 0.1 mm 1 mps 562 mmHg 73%
20:00 +12°C° 0.1 mm 1 mps 562 mmHg 78%
21:00 +11°C° 0.1 mm 1 mps 562 mmHg 84%
22:00 +11°C° 0.2 mm 1 mps 562 mmHg 84%
23:00 +10°C° 0.2 mm 1 mps 562 mmHg 84%

Day after tomorrow, 16 April, Friday

Time Temperature Precipitation Wind Pressure Humidity
00:00 +10°C° 0.2 mm 1 mps 562 mmHg 84%
01:00 +10°C° 0 mm 1 mps 561 mmHg 83%
02:00 +8°C° 0 mm 2 mps 561 mmHg 82%
03:00 +8°C° 0 mm 2 mps 561 mmHg 80%
04:00 +8°C° 0 mm 2 mps 561 mmHg 79%
05:00 +7°C° 0 mm 2 mps 561 mmHg 78%
06:00 +7°C° 0 mm 2 mps 561 mmHg 77%
07:00 +10°C° 0 mm 2 mps 562 mmHg 65%
08:00 +14°C° 0 mm 2 mps 564 mmHg 53%
09:00 +16°C° 0 mm 2 mps 565 mmHg 41%
10:00 +17°C° 0.2 mm 2 mps 565 mmHg 41%
11:00 +18°C° 0.2 mm 2 mps 565 mmHg 41%
12:00 +18°C° 0.2 mm 3 mps 564 mmHg 40%
13:00 +18°C° 0.7 mm 3 mps 564 mmHg 45%
14:00 +17°C° 0.7 mm 3 mps 563 mmHg 50%
15:00 +16°C° 0.7 mm 3 mps 562 mmHg 55%
16:00 +14°C° 1.8 mm 2 mps 562 mmHg 68%
17:00 +12°C° 1.8 mm 2 mps 561 mmHg 81%
18:00 +9°C° 1.8 mm 2 mps 561 mmHg 94%
19:00 +10°C° 1.7 mm 1 mps 562 mmHg 94%
20:00 +10°C° 1.7 mm 1 mps 562 mmHg 95%
21:00 +9°C° 1.7 mm 1 mps 563 mmHg 95%
22:00 +9°C° 0.6 mm 1 mps 563 mmHg 93%
23:00 +9°C° 0.6 mm 1 mps 562 mmHg 91%

17 April, Saturday

Time Temperature Precipitation Wind Pressure Humidity
00:00 +9°C° 0.6 mm 1 mps 562 mmHg 89%
01:00 +9°C° 0.2 mm 1 mps 562 mmHg 88%
02:00 +9°C° 0.2 mm 1 mps 562 mmHg 86%
03:00 +9°C° 0.2 mm 1 mps 561 mmHg 85%
04:00 +8°C° 0.1 mm 2 mps 562 mmHg 85%
05:00 +7°C° 0.1 mm 2 mps 562 mmHg 84%
06:00 +7°C° 0.1 mm 2 mps 562 mmHg 84%
07:00 +9°C° 0 mm 2 mps 563 mmHg 75%
08:00 +13°C° 0 mm 1 mps 564 mmHg 67%
09:00 +15°C° 0 mm 1 mps 565 mmHg 58%
10:00 +16°C° 0.1 mm 1 mps 565 mmHg 57%
11:00 +16°C° 0.1 mm 2 mps 565 mmHg 57%
12:00 +17°C° 0.1 mm 2 mps 564 mmHg 56%
13:00 +16°C° 0.6 mm 2 mps 564 mmHg 59%
14:00 +16°C° 0.6 mm 2 mps 563 mmHg 62%
15:00 +16°C° 0.6 mm 2 mps 563 mmHg 65%
16:00 +15°C° 0.5 mm 2 mps 562 mmHg 71%
17:00 +14°C° 0.5 mm 2 mps 562 mmHg 77%
18:00 +13°C° 0.5 mm 1 mps 562 mmHg 83%
19:00 +12°C° 0.1 mm 1 mps 562 mmHg 85%
20:00 +11°C° 0.1 mm 1 mps 562 mmHg 86%
21:00 +11°C° 0.1 mm 1 mps 563 mmHg 87%
22:00 +10°C° 0.1 mm 1 mps 563 mmHg 87%
23:00 +10°C° 0.1 mm 1 mps 563 mmHg 87%

18 April, Sunday

Time Temperature Precipitation Wind Pressure Humidity
00:00 +9°C° 0.1 mm 2 mps 563 mmHg 87%
01:00 +9°C° 0.1 mm 2 mps 562 mmHg 87%
02:00 +8°C° 0.1 mm 2 mps 561 mmHg 88%
03:00 +7°C° 0.1 mm 2 mps 561 mmHg 88%
04:00 +9°C° 0.2 mm 1 mps 561 mmHg 88%
05:00 +9°C° 0.2 mm 1 mps 562 mmHg 89%
06:00 +9°C° 0.2 mm 1 mps 562 mmHg 89%
07:00 +11°C° 0.2 mm 1 mps 563 mmHg 82%
08:00 +13°C° 0.2 mm 1 mps 563 mmHg 74%
09:00 +15°C° 0.2 mm 2 mps 564 mmHg 67%
10:00 +15°C° 0.6 mm 2 mps 564 mmHg 67%
11:00 +15°C° 0.6 mm 2 mps 563 mmHg 67%
12:00 +16°C° 0.6 mm 3 mps 563 mmHg 66%
13:00 +16°C° 0.6 mm 3 mps 563 mmHg 67%
14:00 +16°C° 0.6 mm 3 mps 562 mmHg 67%
15:00 +14°C° 0.6 mm 3 mps 561 mmHg 67%
16:00 +14°C° 0.4 mm 2 mps 561 mmHg 72%
17:00 +13°C° 0.4 mm 2 mps 560 mmHg 77%
18:00 +12°C° 0.4 mm 1 mps 560 mmHg 83%
19:00 +12°C° 0.8 mm 1 mps 560 mmHg 86%
20:00 +11°C° 0.8 mm 1 mps 560 mmHg 90%
21:00 +10°C° 0.8 mm 1 mps 561 mmHg 94%
22:00 +10°C° 0.5 mm 1 mps 560 mmHg 94%
23:00 +9°C° 0.5 mm 1 mps 560 mmHg 94%

19 April, Monday

Time Temperature Precipitation Wind Pressure Humidity
00:00 +8°C° 0.5 mm 2 mps 560 mmHg 93%
01:00 +7°C° 0.1 mm 2 mps 559 mmHg 92%
02:00 +7°C° 0.1 mm 2 mps 559 mmHg 90%
03:00 +6°C° 0.1 mm 2 mps 559 mmHg 89%
04:00 +6°C° 0 mm 2 mps 559 mmHg 87%
05:00 +6°C° 0 mm 2 mps 559 mmHg 86%
06:00 +6°C° 0 mm 2 mps 559 mmHg 84%
07:00 +8°C° 0 mm 2 mps 560 mmHg 74%
08:00 +12°C° 0 mm 2 mps 561 mmHg 64%
09:00 +15°C° 0 mm 1 mps 562 mmHg 55%
10:00 +16°C° 0 mm 2 mps 562 mmHg 50%
11:00 +17°C° 0 mm 2 mps 562 mmHg 46%
12:00 +18°C° 0 mm 3 mps 562 mmHg 42%
13:00 +17°C° 0.2 mm 3 mps 561 mmHg 46%
14:00 +17°C° 0.2 mm 3 mps 561 mmHg 51%
15:00 +16°C° 0.2 mm 3 mps 560 mmHg 55%
16:00 +15°C° 0.2 mm 2 mps 560 mmHg 62%
17:00 +14°C° 0.2 mm 1 mps 559 mmHg 69%
18:00 +13°C° 0.2 mm 1 mps 559 mmHg 75%
19:00 +12°C° 0.1 mm 1 mps 559 mmHg 80%
20:00 +11°C° 0.1 mm 1 mps 560 mmHg 84%
21:00 +10°C° 0.1 mm 1 mps 560 mmHg 88%
22:00 +10°C° 0.2 mm 1 mps 560 mmHg 90%
23:00 +10°C° 0.2 mm 1 mps 560 mmHg 91%
Show more

We Need Your Consent

Meteoprog and our Service Providers may store and access personal data such as cookies, device identifiers or other similar technologies on your device and process such data to personalise content and ads, as well as provide social media features and to analyse the traffic.

  • Store and/or access information on your device

    Cookies, device identifiers or other information can be stored or accessed on your device for the purposes indicated above.

  • Personalised ads and content, ad and content measurement, audience insights, and products development

    Ads and content can be personalised based on a profile. More data can be added to better personalise ads and content. Ad and content performance can be measured. Insights about the audience who saw the ads and content can be derived. Such data can be used to develop or improve user’s experience, systems and software.

By clicking ‘I Agree’ you will allow the use of indicated cookies, device identifiers, web beacons or other similar technologies. Your settings can be changed in the browser on your device.

For certain purposes, legitimate interests may be relied on, rather than consent. You can read more about this in our Privacy and Cookie Policy.